Taunton, MA

12:19 AM EDT on May 29, 2017 (GMT -0400)
Taunton Municipal

Weather History for KTAN - November, 2012

Change the Weather History Date:

Sunday, November 18, 2012

  Actual Average Record
Temperature  
Mean Temperature 36 °F -  
Max Temperature 50 °F 52 °F 71 °F (1953)
Min Temperature 23 °F 31 °F 19 °F (2015)
Degree Days  
Heating Degree Days 28    
Moisture  
Dew Point 26 °F    
Average Humidity 76    
Maximum Humidity 92    
Minimum Humidity 44    
Precipitation  
Precipitation 0.00 in - - ()
Sea Level Pressure  
Sea Level Pressure 30.66 in    
Wind  
Wind Speed 1 mph (NE)    
Max Wind Speed 10 mph    
Max Gust Speed -    
Visibility 8 miles    
Events      
Averages and records for this station are not official NWS values.
T = Trace of Precipitation, MM = Missing Value Source: NWS Daily Summary

Daily Weather History Graph

Daily Weather History Graph

Search for Another Location

Airport or City:

Trip Planner

Search our weather history database for the weather conditions in past years. The results will help you decide how hot, cold, wet, or windy it might be!

Date:

Astronomy

Nov. 18, 2012 Rise Set
Actual Time 6:37 AM EST 4:20 PM EST
Civil Twilight 6:07 AM EST 4:50 PM EST
Nautical Twilight 5:33 AM EST 5:24 PM EST
Astronomical Twilight 5:00 AM EST 5:57 PM EST
Moon 11:01 AM EST (11/18) 9:37 PM EST (11/18)
Length of Visible Light 10h 43m
Length of Day
9h 42m
Waxing Crescent, 30% of the Moon is Illuminated
Nov 18
Waxing Crescent
Nov 20
First Quarter
Nov 28
Full
Dec 6
Last Quarter
Dec 13
New

Hourly Weather History & Observations

Time (EST) Temp. Windchill Dew Point Humidity Pressure Visibility Wind Dir Wind Speed Gust Speed Precip Events Conditions
12:52 AM 25.0 °F - 21.9 °F 88% 30.66 in 6.0 mi Calm Calm - N/A   Clear
1:52 AM 25.0 °F - 21.9 °F 88% 30.66 in 4.0 mi Calm Calm - N/A   Clear
2:52 AM 24.1 °F - 21.0 °F 88% 30.65 in 4.0 mi Calm Calm - N/A   Clear
3:52 AM 23.0 °F - 19.9 °F 88% 30.64 in 5.0 mi Calm Calm - N/A   Clear
4:52 AM 23.0 °F - 19.0 °F 85% 30.66 in 6.0 mi Calm Calm - N/A   Clear
5:52 AM 23.0 °F - 19.0 °F 85% 30.68 in 5.0 mi Calm Calm - N/A   Clear
6:52 AM 23.0 °F - 19.0 °F 85% 30.69 in 4.0 mi Calm Calm - N/A   Clear
7:52 AM 28.0 °F - 26.1 °F 92% 30.69 in 5.0 mi Calm Calm - N/A   Partly Cloudy
8:52 AM 37.0 °F - 32.0 °F 82% 30.69 in 7.0 mi Calm Calm - N/A   Clear
9:52 AM 45.0 °F 43.5 °F 34.0 °F 65% 30.70 in 10.0 mi NNE 3.5 mph - N/A   Clear
10:52 AM 46.9 °F - 32.0 °F 56% 30.69 in 10.0 mi NE 8.1 mph - N/A   Clear
11:52 AM 48.9 °F - 30.0 °F 48% 30.66 in 10.0 mi ENE 8.1 mph - N/A   Clear
12:52 PM 48.9 °F - 28.0 °F 44% 30.65 in 10.0 mi ENE 10.4 mph - N/A   Clear
1:52 PM 50.0 °F - 28.9 °F 44% 30.64 in 10.0 mi Variable 4.6 mph - N/A   Clear
2:52 PM 48.0 °F - 28.9 °F 48% 30.64 in 10.0 mi NE 8.1 mph - N/A   Clear
3:52 PM 45.0 °F 41.8 °F 28.9 °F 53% 30.65 in 10.0 mi NE 5.8 mph - N/A   Clear
4:52 PM 39.9 °F - 28.9 °F 65% 30.65 in 10.0 mi Calm Calm - N/A   Clear
5:52 PM 34.0 °F - 28.9 °F 82% 30.65 in 10.0 mi Calm Calm - N/A   Clear
6:52 PM 30.9 °F - 27.0 °F 85% 30.65 in 10.0 mi Calm Calm - N/A   Clear
7:52 PM 28.9 °F - 26.1 °F 89% 30.64 in 10.0 mi Calm Calm - N/A   Clear
8:52 PM 30.0 °F - 27.0 °F 88% 30.64 in 10.0 mi Calm Calm - N/A   Clear
9:52 PM 28.9 °F - 26.1 °F 89% 30.63 in 6.0 mi Calm Calm - N/A   Clear
10:52 PM 28.0 °F - 25.0 °F 88% 30.62 in 6.0 mi Calm Calm - N/A   Clear
11:52 PM 27.0 °F - 24.1 °F 89% 30.61 in 6.0 mi Calm Calm - N/A   Clear